Starlink 6354

operational
NORAD ID: 56784 Int'l Des: 2023-078 Owner: SPXS Country: US Constellation: starlink
LEOCIRCULAR

Über Starlink 6354

Beschreibung wird geladen...

Live-Position

3D-Globus wird geladen...

Nächste Überflüge

Höhenverlauf

Altitude vs Time

uPlot chart will show altitude changes over time

Zweizeiliger Elementsatz

1 56784U 23078T 25306.33003686 -.00000236 00000-0 -11966-4 0 9995
2 56784 69.9981 285.6781 0003117 270.4568 89.6234 14.98326347134091
Epoch: 2. Nov. 2025 • Age: 25 hours

Aktueller Status

Höhe 574.9 km
Geschwindigkeit 7.57 km/s
Subsatellitenpunkt -3.73°S, 70.03°W
Startdatum 31. Mai 2023
Alter 2.4 years
Typ internet

Technische Details

Klassifizierung Payload
Masse 305.00 kg
Trockenmasse 290.00 kg
Gesamtmasse 305.00 kg
Länge 0.20 m
Durchmesser 2.80 m
Spannweite 9.00 m
Form Box + pan
Hersteller SPXS
Bus-Typ Starlink
Phasenstatus In Orbit
Besitzer/Staat SPXS/US

Große Konstellationen

Loading constellations...